Location: Newark
(52.4787°S, 179.0532°W)
Time: 18:46:50
(UTC+00:00)

Envisat - Visible Passes

Search period start: 21 October 2019 00:00
Search period end: 31 October 2019 00:00
Orbit: 764 x 766 km, 98.1° (Epoch: 21 October)

Date Brightness Start Highest point End Pass type
(mag) Time Alt. Az. Time Alt. Az. Time Alt. Az.
21 Oct 4.7 08:05:01 10° S 08:09:45 37° WSW 08:14:26 10° NW visible
22 Oct 3.5 07:28:00 10° S 07:33:09 69° WSW 07:38:14 10° NNW visible
22 Oct 6.1 09:08:28 10° SSW 09:11:18 15° SW 09:14:08 10° W visible
22 Oct 6.6 15:35:11 10° ESE 15:36:36 11° SE 15:38:01 10° SSE visible
23 Oct 5.5 08:30:51 10° S 08:35:01 25° WSW 08:39:10 10° WNW visible
24 Oct 4.4 07:53:39 10° S 07:58:33 44° WSW 08:03:24 10° NW visible
24 Oct 6.6 09:35:48 10° SW 09:36:22 10° SW 09:36:55 10° SW visible
25 Oct 6.0 08:56:53 10° SSW 09:00:12 17° SW 09:03:30 10° W visible
26 Oct 5.2 08:19:25 10° S 08:23:51 30° WSW 08:28:15 10° WNW visible
27 Oct 4.0 07:42:18 10° S 07:47:21 53° WSW 07:52:19 10° NW visible
27 Oct 6.3 09:23:23 10° SSW 09:25:17 12° SW 09:27:11 10° WSW visible
27 Oct 6.3 15:48:02 10° E 15:50:35 14° SE 15:53:07 10° SSE visible
28 Oct 5.8 08:45:22 10° S 08:49:05 20° SW 08:52:46 10° W visible
29 Oct 4.9 08:08:01 10° S 08:12:41 35° WSW 08:17:18 10° NW visible
30 Oct 3.7 07:30:59 10° S 07:36:06 64° WSW 07:41:10 10° NNW visible
30 Oct 6.2 09:11:36 10° SSW 09:14:12 14° SW 09:16:49 10° W visible
30 Oct 6.6 15:37:41 10° ESE 15:39:30 12° SE 15:41:18 10° SSE visible
